Showing default

PULSAR-0, 64541

Orbit data source: Space-Track

PULSAR-0, 64541 is an American payload satellite in SSO that was launched on Mon, 23 Jun 2025 UTC via an FALCON 9 launch vehicle from the Air Force Western Test Range (AFWTR). Payload-class satellites include a variety of spacecraft equipped with specific instruments for various scientific and technological missions. These include communications satellites like Starlink; space stations such as the ISS; scientific satellites like the Hubble; Earth observation satellites from companies like Planet Labs, Umbra, and HawkEye 360; GPS; miniature CubeSats for education and research; and military/defense satellites.

Loading next visibility...
Identifier
64541, 2025-135P
Orbit
SSO
Country
Flag of USUS
Related business
Manufacturer
Aerospacelab
Mission
Operational Commercial Navigation
Bus & Motor
PULSAR, AOCS
Mass
149 kg wet, 144 kg dry
Launch date (UTC)
2025-06-23 (1 year ago)
Launch vehicle
FALCON 9
Launch site
Air Force Western Test Range (AFWTR)
Object type
Payload
Rocket body
Debris
Shape & HBR
Box + 2 Pan, 1.0 m
Radar Cross Section
0.963 m², Large (>1 m²)

Expand to show TLE details & history
Last TLE update: 14 hours ago

TLE from 14 hours ago
0 PULSAR-0
1 64541U 25135P   26178.29021829  .00003249  00000-0  15262-3 0  9990
2 64541  97.4710 292.8447 0004163 131.6321 228.5271 15.20317021 56366
Epoch: 2026-06-27T06:57Z
TLE epoch observation values (Epoch: 2026-06-27T06:57:54.860Z)
Latitude
-0.00003°
Longitude
-87.04038°
Altitude
509.871 km
Speed
7.608 km/s
True Right ascension
19h 31m 22s
True Declination
0° 00' 00"
Sunlit
Object was in full shadow at epoch
Visualization orbit readout
Latitude
Unknown
Longitude
Unknown
Altitude
Unknown
Speed
Unknown
Apparent Right ascension
Unknown
Apparent Declination
Unknown
Sunlit
N/A
Visualization observer readout
Local Sidereal Time
08:02:46
Azimuth
Unknown
Elevation
Unknown
Doppler factor
Unknown
Orbital elements
Apogee altitude
504.716 km
Perigee altitude
498.988 km
Semi-major axis
6,879.989 km
Eccentricity
0.00042
Inclination
97.471°
RAAN
292.8447°
Arg. of periapsis
131.6321°
True anomaly
228.49137°
Mean anomaly
228.5271°
Eccentric anomaly
228.50923°
Mean motion
3.80331 °/min
Orbital period
94.65 mins
BSTAR
0.00015262
Loading maneuver chart data...
Computing Atmospheric mass density...
Loading historical data...
Loading historical data...
Loading historical data...
Loading historical data...
Loading historical data...
Loading historical data...
Loading historical data...

Documentation

Showing up to 5 results
|